Regional Weather Roundup
Issued by NWS

Home | Current Version | Previous Version | Text Only | Print | Product List | Glossary Off
Versions: 1 2 3 4 5 6 7 8 9 10 11 12 13 14 15 16 17 18 19 20 21 22 23 24 25 26 27 28 29 30 31 32 33 34 35 36 37 38 39 40 41 42 43 44 45 46 47 48 49 50

000
ASUS45 KCYS 111810
RWRWY

WYOMING REGIONAL WEATHER ROUNDUP
NATIONAL WEATHER SERVICE CHEYENNE WY
1200 PM MDT FRI JUL 11 2014

NOTE:  "FAIR" INDICATES FEW OR NO CLOUDS BELOW 12,000 FEET
WITH NO SIGNIFICANT WEATHER AND/OR OBSTRUCTIONS TO VISIBILITY.

WYZ001-111900-
YELLOWSTONE NATIONAL PARK

CITY           SKY/WX    TMP DP  RH WIND       PRES   REMARKS
LK YELLOWSTONE   N/A     69  50  50 VRB3      30.34S
6HR MIN TEMP:  42; 6HR MAX TEMP:  69;

W YELLOWSTONE  NOT AVBL

$$
WYZ002>013-054>058-071-098>099-111900-
NORTHERN WYOMING

CITY           SKY/WX    TMP DP  RH WIND       PRES   REMARKS
JACKSON        SUNNY     75  52  43 CALM      30.22F
CODY           MOSUNNY  N/A N/A N/A N14G22    30.16F
GREYBULL       MOSUNNY   84  51  31 NW13G20   30.05S
6HR MIN TEMP:  60; 6HR MAX TEMP:  85;

WORLAND        MOSUNNY   85  55  35 NE12      30.06S
6HR MIN TEMP:  61; 6HR MAX TEMP:  86;

SHERIDAN       MOSUNNY   82  56  40 VRB3      30.11S
6HR MIN TEMP:  54; 6HR MAX TEMP:  83;

BUFFALO        MOSUNNY   76  56  49 N16G22    30.17R
6HR MIN TEMP:  63; 6HR MAX TEMP:  81;

GILLETTE       PTSUNNY   77  60  55 NE12      30.11R
6HR MIN TEMP:  59; 6HR MAX TEMP:  85;

HULETT         FAIR      77  63  61 MISG      30.14
NEWCASTLE      FAIR      88  48  25 W3        30.07

$$
WYZ014>020-022>026-101>103-111900-
CENTRAL WYOMING

CITY           SKY/WX    TMP DP  RH WIND       PRES   REMARKS
BIG PINEY      CLOUDY    69  53  56 W8        30.29S
6HR MIN TEMP:  50; 6HR MAX TEMP:  69;

PINEDALE       CLOUDY    68  52  56 CALM      30.29S
DUBOIS         FAIR      77  41  27 SE12      30.25S
LANDER         CLOUDY    78  55  44 CALM      30.14S
6HR MIN TEMP:  62; 6HR MAX TEMP:  80;

RIVERTON       PTSUNNY   79  52  38 E6        30.15S
6HR MIN TEMP:  64; 6HR MAX TEMP:  79;

CASPER         PTSUNNY   75  54  47 SW14      30.15S
6HR MIN TEMP:  66; 6HR MAX TEMP:  77; 6HR PCP: TRACE;

DOUGLAS        CLOUDY    75  58  55 NW9       30.14R
6HR MIN TEMP:  63; 6HR MAX TEMP:  75;


$$
WYZ021-027>030-104>119-111900-
SOUTHERN WYOMING

CITY           SKY/WX    TMP DP  RH WIND       PRES   REMARKS
EVANSTON       LGT RAIN  61  57  87 NW5       30.31R
6HR MIN TEMP:  56; 6HR MAX TEMP:  61; 6HR PCP:  0.01;

KEMMERER       CLOUDY    63  54  72 S5        30.33R
FORT BRIDGER   CLOUDY    66  53  61 CALM      30.32S
ROCK SPRINGS   CLOUDY    71  49  45 SW6       30.27R
6HR MIN TEMP:  59; 6HR MAX TEMP:  71;

DIXON          CLOUDY    76  52  43 W3        30.28S
RAWLINS        CLOUDY    73  51  46 W6        30.27S
6HR MIN TEMP:  60; 6HR MAX TEMP:  73;

SARATOGA       MOCLDY    72  52  49 N5        30.30R
LARAMIE        PTSUNNY   73  52  47 NE6       30.28F
6HR MIN TEMP:  57; 6HR MAX TEMP:  74;

CHEYENNE       MOSUNNY   83  50  31 N9        30.20S
6HR MIN TEMP:  65; 6HR MAX TEMP:  84;

TORRINGTON     PTSUNNY   83  59  44 N3        30.07S
6HR MIN TEMP:  64; 6HR MAX TEMP:  84;


$$


USA.gov is the U.S. government's official web portal to all federal, state and local government web resources and services.